TimeCST,TemperatureF,Dew PointF,Humidity,Sea Level PressureIn,VisibilityMPH,Wind Direction,Wind SpeedMPH,Gust SpeedMPH,PrecipitationIn,Events,Conditions,WindDirDegrees,DateUTC
12:07 AM,19.4,17.6,93,29.88,1.2,North,13.8,-,0.00,Snow,Light Snow,360,2013-12-04 06:07:00
12:36 AM,19.4,17.6,93,29.89,2.0,North,11.5,-,0.01,Snow,Light Snow,360,2013-12-04 06:36:00
12:53 AM,19.0,16.0,88,29.94,3.0,North,11.5,-,0.01,Snow,Light Snow,360,2013-12-04 06:53:00
1:49 AM,19.4,15.8,86,29.89,2.0,North,12.7,-,0.00,Snow,Light Snow,360,2013-12-04 07:49:00
1:53 AM,18.0,15.1,88,29.94,2.0,North,15.0,-,0.00,Snow,Light Snow,360,2013-12-04 07:53:00
2:25 AM,19.4,15.8,86,29.89,2.0,North,12.7,-,0.01,Snow,Light Snow,360,2013-12-04 08:25:00
2:34 AM,19.4,15.8,86,29.89,1.8,North,12.7,-,0.01,Snow,Light Snow,360,2013-12-04 08:34:00
2:41 AM,19.4,15.8,86,29.89,2.0,North,11.5,-,0.01,Snow,Light Snow,360,2013-12-04 08:41:00
2:53 AM,19.0,16.0,88,29.95,2.0,North,11.5,-,0.02,Snow,Light Snow,360,2013-12-04 08:53:00
2:55 AM,19.4,15.8,86,29.89,1.8,North,11.5,-,0.00,Snow,Light Snow,360,2013-12-04 08:55:00
3:53 AM,19.9,17.1,89,29.94,1.2,North,11.5,-,0.01,Snow,Light Snow,360,2013-12-04 09:53:00
4:53 AM,19.9,17.1,89,29.92,1.5,NNE,13.8,-,0.01,Snow,Light Snow,20,2013-12-04 10:53:00
5:03 AM,19.4,17.6,93,29.86,1.2,NNE,13.8,-,0.01,Snow,Light Snow,20,2013-12-04 11:03:00
5:53 AM,19.0,16.0,88,29.91,1.5,NNE,15.0,-,0.01,Snow,Light Snow,20,2013-12-04 11:53:00
6:53 AM,18.0,14.0,84,29.92,1.5,North,15.0,-,0.01,Snow,Light Snow,10,2013-12-04 12:53:00
7:25 AM,17.6,14.0,86,29.85,1.0,North,17.3,-,0.01,Snow,Light Snow,10,2013-12-04 13:25:00
7:53 AM,17.1,14.0,88,29.89,0.5,North,16.1,-,0.01,Snow,Light Snow,10,2013-12-04 13:53:00
8:04 AM,17.6,14.0,86,29.84,1.0,North,17.3,-,0.00,Snow,Light Snow,10,2013-12-04 14:04:00
8:33 AM,17.6,12.2,79,29.84,0.8,North,17.3,-,0.01,Snow,Light Snow,10,2013-12-04 14:33:00
8:53 AM,17.1,12.9,84,29.89,0.8,North,18.4,-,0.01,Snow,Light Snow,10,2013-12-04 14:53:00
9:53 AM,16.0,12.9,88,29.90,0.8,North,21.9,-,0.01,Snow,Light Snow,10,2013-12-04 15:53:00
10:24 AM,15.8,12.2,86,29.83,0.2,North,23.0,27.6,0.00,Fog-Snow,Heavy Snow,10,2013-12-04 16:24:00
10:36 AM,15.8,12.2,86,29.81,0.2,North,21.9,-,0.00,Fog-Snow,Heavy Snow,10,2013-12-04 16:36:00
10:48 AM,15.8,12.2,86,29.82,0.5,North,18.4,29.9,0.00,Fog-Snow,Snow,10,2013-12-04 16:48:00
10:53 AM,16.0,12.0,84,29.87,0.5,North,18.4,-,0.00,Fog-Snow,Snow,10,2013-12-04 16:53:00
11:38 AM,15.8,12.2,86,29.80,0.5,North,20.7,-,0.01,Snow,Light Snow,10,2013-12-04 17:38:00
11:53 AM,16.0,12.0,84,29.84,0.5,North,17.3,-,0.01,Snow,Light Snow,360,2013-12-04 17:53:00
12:53 PM,16.0,10.9,81,29.82,1.2,North,18.4,-,0.01,Snow,Light Snow,360,2013-12-04 18:53:00
1:01 PM,15.8,10.4,79,29.76,1.2,North,17.3,-,0.00,Snow,Light Snow,360,2013-12-04 19:01:00
1:18 PM,15.8,10.4,79,29.75,0.8,North,17.3,-,0.00,Snow,Light Snow,360,2013-12-04 19:18:00
1:34 PM,15.8,10.4,79,29.74,0.5,North,20.7,-,0.00,Fog-Snow,Snow,360,2013-12-04 19:34:00
1:53 PM,14.0,10.9,88,29.79,0.5,North,23.0,27.6,0.00,Fog-Snow,Snow,350,2013-12-04 19:53:00
2:53 PM,14.0,10.0,84,29.77,0.8,North,25.3,31.1,0.00,Snow,Light Snow,350,2013-12-04 20:53:00
3:41 PM,12.2,8.6,85,29.73,0.5,North,25.3,33.4,0.00,Fog-Snow,Snow,350,2013-12-04 21:41:00
3:53 PM,12.9,9.0,84,29.78,0.5,North,27.6,32.2,0.00,Fog-Snow,Snow,350,2013-12-04 21:53:00
4:53 PM,10.9,8.1,88,29.78,0.5,NNW,21.9,28.8,0.01,Snow,Light Snow,340,2013-12-04 22:53:00
5:23 PM,10.4,6.8,85,29.71,0.8,NNW,25.3,33.4,0.00,Snow,Light Snow,340,2013-12-04 23:23:00
5:53 PM,10.0,6.1,84,29.78,0.8,NNW,25.3,31.1,0.00,Snow,Light Snow,340,2013-12-04 23:53:00
6:50 PM,8.6,5.0,85,29.72,0.8,NNW,26.5,-,0.01,Snow,Light Snow,340,2013-12-05 00:50:00
6:53 PM,9.0,5.0,84,29.77,0.8,NNW,24.2,34.5,0.01,Snow,Light Snow,340,2013-12-05 00:53:00
7:53 PM,9.0,5.0,84,29.78,0.8,NNW,25.3,33.4,0.00,Snow,Light Snow,340,2013-12-05 01:53:00
8:48 PM,8.6,3.2,79,29.72,0.8,NNW,26.5,32.2,0.00,Snow,Light Snow,330,2013-12-05 02:48:00
8:53 PM,9.0,3.9,80,29.78,0.8,NNW,25.3,-,0.00,Snow,Light Snow,330,2013-12-05 02:53:00
9:53 PM,7.0,3.0,84,29.80,1.0,NW,24.2,29.9,0.00,Snow,Light Snow,320,2013-12-05 03:53:00
10:42 PM,6.8,1.4,79,29.73,1.0,NNW,28.8,35.7,N/A,Snow,Light Snow,330,2013-12-05 04:42:00
10:53 PM,7.0,1.9,80,29.80,1.0,NW,24.2,32.2,N/A,Snow,Light Snow,320,2013-12-05 04:53:00
11:32 PM,6.8,1.4,79,29.75,2.0,NW,23.0,29.9,0.01,Snow,Light Snow,320,2013-12-05 05:32:00
11:53 PM,7.0,1.9,80,29.81,1.8,NW,20.7,29.9,0.01,Snow,Light Snow,320,2013-12-05 05:53:00